Flag for Norway Weather past 2 weeks in Stavern, Norway

Now
45 °F

Drizzle. Partly sunny.


Feels Like: 37 °F
Forecast: 43 / 51 °F
Wind: 16 mph from Southwest

Location: Torp


UV Index: 0 (Low)

Visibility: 5 mi


Pressure: 29.42 "Hg

Humidity: 93%

Dew point: 43 °F

Location of StavernLocation

Historic Weather in Stavern

°F

Stavern temperature yesterday

Maximum temperature yesterday: 54 °F (at 1:20 PM)
Minimum temperature yesterday: 36 °F (at 3:20 AM)
Average temperature yesterday: 44 °F

Past Weeks' High & Low Weather Summary

 TemperatureHumidityPressure
High59 °F (Apr 7, 12:50 PM)100% (Apr 5, 3:50 PM)30.33 "Hg (Apr 5, 3:50 PM)
Low28 °F (Apr 5, 6:20 AM)26% (Apr 15, 5:20 PM)29.39 "Hg (Apr 13, 4:50 AM)
Average42 °F76%29.85 "Hg
* Reported Apr 2 5:20 PM — Apr 17 5:50 PM, Stavern, Weather by CustomWeather, © 2014

Note: Actual official high and low records may vary slightly from our data, if they occured in-between our weather recording intervals... More about our weather records

Advertising

Historic Weather Conditions — Data for Previous 24 hours

 ConditionsComfort  
Time TempWeatherWind HumidityBarometerVisibility
5:50 PM
Apr 17
45 °FDrizzle. Partly sunny.16 mph93%29.42 "Hg5 mi
5:20 PM45 °FDrizzle. Partly sunny.21 mph93%29.45 "Hg5 mi
4:50 PM45 °FLight rain. Partly sunny.21 mph93%29.45 "Hg5 mi
4:20 PM45 °FLight rain. Broken clouds.21 mph93%29.47 "Hg4 mi
3:50 PM45 °FLight rain. Partly sunny.22 mph93%29.50 "Hg3 mi
3:20 PM45 °FDrizzle. Mostly cloudy.21 mph93%29.53 "Hg2 mi
2:50 PM45 °FDrizzle. Mostly cloudy.26 mph93%29.53 "Hg3 mi
2:20 PM45 °FDrizzle. Mostly cloudy.24 mph93%29.56 "Hg2 mi
1:50 PM45 °FDrizzle. Fog.23 mph93%29.59 "Hg3 mi
1:20 PM45 °FFog.22 mph93%29.62 "Hg3 mi
12:50 PM45 °FFog.20 mph93%29.65 "Hg3 mi
12:20 PM43 °FFog.23 mph100%29.68 "Hg3 mi
11:50 AM45 °FRain. More clouds than sun.20 mph93%29.71 "Hg2 mi
11:20 AM45 °FRain. Broken clouds.22 mph87%29.71 "Hg3 mi
10:50 AM45 °FOvercast.25 mph87%29.74 "Hg6 mi
10:20 AM45 °FPartly sunny.23 mph87%29.74 "HgN/A
9:50 AM45 °FOvercast.24 mph81%29.77 "HgN/A
9:20 AM45 °FLow clouds.18 mph87%29.80 "HgN/A
8:50 AM43 °FPartly sunny.18 mph93%29.83 "Hg6 mi
8:20 AM43 °FPartly sunny.18 mph87%29.83 "HgN/A
7:50 AM43 °FBroken clouds.16 mph87%29.86 "HgN/A
7:20 AM41 °FScattered clouds.15 mph87%29.89 "HgN/A
6:50 AM41 °FPassing clouds.16 mph81%29.92 "HgN/A
6:20 AM41 °FPartly cloudy.20 mph81%29.92 "HgN/A
5:50 AM41 °FPartly cloudy.21 mph81%29.95 "HgN/A
5:20 AM41 °FPassing clouds.20 mph81%29.95 "HgN/A
4:50 AM41 °FPartly cloudy.17 mph81%29.95 "HgN/A
4:20 AM41 °FPassing clouds.16 mph81%29.98 "HgN/A
3:50 AM41 °FPassing clouds.18 mph81%30.01 "HgN/A
3:20 AM41 °FQuite cool.20 mph81%30.04 "HgN/A
2:50 AM41 °FPassing clouds.18 mph87%30.04 "HgN/A
2:20 AM41 °FPassing clouds.18 mph87%30.07 "HgN/A
1:50 AM41 °FQuite cool.17 mph87%30.07 "HgN/A
1:20 AM41 °FPassing clouds.17 mph93%30.09 "HgN/A
12:50 AM43 °FPassing clouds.15 mph87%30.09 "HgN/A
12:20 AM43 °FPassing clouds.16 mph87%30.09 "HgN/A
11:50 PM
Apr 16
43 °FClear.14 mph87%30.12 "Hg10 mi
10:50 PM45 °FClear.10 mph81%30.15 "Hg10 mi
10:20 PM45 °FClear.14 mph81%30.15 "Hg10 mi
9:50 PM46 °FClear.14 mph76%30.15 "Hg10 mi
9:20 PM45 °FSunny.8 mph81%30.15 "Hg10 mi
8:50 PM45 °FSunny.9 mph81%30.15 "Hg10 mi
8:20 PM46 °FSunny.10 mph76%30.15 "Hg10 mi
7:50 PM46 °FSunny.15 mph76%30.15 "Hg10 mi
7:20 PM46 °FSunny.15 mph76%30.15 "Hg10 mi
6:50 PM48 °FSunny.13 mph71%30.15 "Hg10 mi
6:20 PM46 °FSunny.16 mph76%30.18 "Hg10 mi
Weather by CustomWeather, © 2014

See weather overview